TimeMST,TemperatureF,Dew PointF,Humidity,Sea Level PressureIn,VisibilityMPH,Wind Direction,Wind SpeedMPH,Gust SpeedMPH,PrecipitationIn,Events,Conditions,WindDirDegrees,DateUTC
12:53 AM,12.9,5.0,71,30.09,10.0,NW,4.6,-,N/A,,Clear,320,2013-02-13 07:53:00
1:53 AM,12.9,5.0,71,30.10,10.0,WNW,4.6,-,N/A,,Clear,300,2013-02-13 08:53:00
2:53 AM,15.1,7.0,70,30.09,10.0,WNW,5.8,-,N/A,,Clear,290,2013-02-13 09:53:00
3:53 AM,14.0,6.1,71,30.06,10.0,Calm,Calm,-,N/A,,Clear,0,2013-02-13 10:53:00
4:53 AM,12.9,5.0,71,30.06,10.0,Calm,Calm,-,N/A,,Clear,0,2013-02-13 11:53:00
5:53 AM,12.9,5.0,71,30.09,10.0,Calm,Calm,-,N/A,,Clear,0,2013-02-13 12:53:00
6:53 AM,8.1,1.9,76,30.13,10.0,WNW,3.5,-,N/A,,Clear,290,2013-02-13 13:53:00
7:53 AM,19.0,8.1,62,30.11,10.0,Calm,Calm,-,N/A,,Clear,0,2013-02-13 14:53:00
8:53 AM,28.0,10.0,47,30.07,10.0,Calm,Calm,-,N/A,,Clear,0,2013-02-13 15:53:00
9:53 AM,34.0,10.0,37,30.04,10.0,ESE,3.5,-,N/A,,Clear,120,2013-02-13 16:53:00
10:53 AM,39.9,12.0,32,30.00,10.0,Calm,Calm,-,N/A,,Clear,0,2013-02-13 17:53:00
11:53 AM,46.9,12.9,25,29.95,10.0,Calm,Calm,-,N/A,,Clear,0,2013-02-13 18:53:00
12:53 PM,50.0,12.0,22,29.94,10.0,Variable,3.5,-,N/A,,Clear,0,2013-02-13 19:53:00
1:53 PM,53.1,12.0,20,29.92,10.0,WNW,5.8,-,N/A,,Clear,290,2013-02-13 20:53:00
2:53 PM,53.1,12.9,20,29.92,10.0,SW,6.9,-,N/A,,Clear,220,2013-02-13 21:53:00
3:53 PM,51.1,12.9,22,29.94,10.0,SW,3.5,-,N/A,,Clear,230,2013-02-13 22:53:00
4:53 PM,48.9,9.0,20,29.96,10.0,NE,5.8,-,N/A,,Clear,50,2013-02-13 23:53:00
5:53 PM,37.9,9.0,30,30.00,10.0,Calm,Calm,-,N/A,,Clear,0,2013-02-14 00:53:00
6:53 PM,37.0,7.0,29,30.05,10.0,ENE,4.6,-,N/A,,Clear,60,2013-02-14 01:53:00
7:53 PM,34.0,7.0,32,30.05,10.0,Calm,Calm,-,N/A,,Clear,0,2013-02-14 02:53:00
8:53 PM,34.0,7.0,32,30.03,10.0,Calm,Calm,-,N/A,,Clear,0,2013-02-14 03:53:00
9:53 PM,28.0,7.0,41,30.05,10.0,NNW,5.8,-,N/A,,Clear,340,2013-02-14 04:53:00
10:53 PM,25.0,7.0,46,30.04,10.0,Calm,Calm,-,N/A,,Clear,0,2013-02-14 05:53:00
11:53 PM,25.0,8.1,49,30.04,10.0,Calm,Calm,-,N/A,,Clear,0,2013-02-14 06:53:00